Visibility
15.0 15.0 15.0 15.0 15.0 15.0 15.0 15.0 15.0 15.0 15.0 15.0 15.0 15.0 15.0 15.0 15.0 15.0 15.0 15.0 15.0 15.0 15.0 15.0 15.0 4.8 1.3 6.1 3.6 4.6 15.0 15.0 15.0 15.0 15.0 15.0 15.0 15.0 15.0 15.0 15.0 15.0 15.0
15.0 15.0 15.0 15.0 15.0 15.0 15.0 15.0 15.0 15.0 15.0 15.0 15.0 15.0 15.0 15.0 15.0 15.0 15.0 15.0 15.0 15.0 15.0 15.0 14.1 4.5 13.4 11.4 3.1 3.4 4.8 15.0 15.0 15.0 15.0 15.0 15.0 15.0 15.0 15.0 15.0 15.0 15.0
15.0 15.0 15.0 15.0 15.0 15.0 15.0 15.0 15.0 15.0 15.0 15.0 15.0 15.0 15.0 15.0 15.0 15.0 15.0 15.0 15.0 15.0 15.0 15.0 15.0 15.0 2.7 4.5 2.1 5.2 4.9 13.9 15.0 15.0 15.0 15.0 15.0 15.0 15.0 15.0 15.0 15.0 15.0
15.0 15.0 15.0 15.0 15.0 15.0 15.0 15.0 15.0 15.0 15.0 15.0 15.0 15.0 15.0 15.0 15.0 15.0 15.0 15.0 15.0 15.0 15.0 15.0 15.0 15.0 15.0 6.4 2.8 2.1 7.9 4.5 8.6 15.0 15.0 15.0 15.0 15.0 15.0 15.0 15.0 15.0 15.0
15.0 15.0 15.0 15.0 15.0 15.0 15.0 15.0 15.0 15.0 15.0 15.0 15.0 15.0 15.0 15.0 15.0 15.0 15.0 15.0 15.0 15.0 15.0 15.0 15.0 15.0 15.0 15.0 3.4 2.3 2.5 7.4 4.5 14.2 15.0 15.0 15.0 15.0 15.0 15.0 15.0 14.0 15.0
15.0 15.0 15.0 15.0 15.0 15.0 15.0 15.0 15.0 15.0 15.0 15.0 15.0 15.0 15.0 15.0 15.0 15.0 15.0 15.0 15.0 15.0 15.0 15.0 15.0 15.0 15.0 15.0 15.0 8.7 3.5 2.9 6.8 2.2 9.8 15.0 15.0 15.0 15.0 15.0 15.0 15.0 15.0
15.0 15.0 15.0 15.0 15.0 15.0 15.0 15.0 15.0 15.0 15.0 15.0 15.0 15.0 15.0 15.0 15.0 15.0 15.0 15.0 15.0 15.0 15.0 15.0 15.0 15.0 15.0 15.0 15.0 15.0 15.0 2.2 2.7 7.1 3.4 10.9 15.0 15.0 15.0 15.0 15.0 15.0 15.0
15.0 15.0 15.0 15.0 15.0 15.0 15.0 15.0 15.0 15.0 15.0 15.0 15.0 15.0 15.0 15.0 15.0 15.0 15.0 15.0 15.0 15.0 15.0 15.0 15.0 15.0 15.0 15.0 15.0 15.0 15.0 15.0 11.1 4.2 3.7 3.9 15.0 15.0 15.0 15.0 15.0 15.0 15.0
15.0 15.0 15.0 15.0 15.0 15.0 15.0 15.0 15.0 15.0 15.0 15.0 15.0 15.0 15.0 15.0 15.0 15.0 15.0 15.0 15.0 15.0 15.0 15.0 15.0 15.0 15.0 15.0 15.0 15.0 15.0 12.5 14.4 2.9 4.3 4.4 6.5 15.0 15.0 15.0 15.0 15.0 15.0
15.0 15.0 15.0 15.0 15.0 15.0 15.0 15.0 15.0 15.0 15.0 15.0 15.0 15.0 15.0 15.0 15.0 15.0 15.0 15.0 15.0 15.0 15.0 15.0 15.0 15.0 15.0 15.0 15.0 15.0 15.0 15.0 15.0 15.0 3.7 5.8 4.2 15.0 15.0 15.0 15.0 15.0 15.0
15.0 15.0 15.0 15.0 15.0 15.0 15.0 15.0 15.0 15.0 15.0 15.0 15.0 15.0 15.0 15.0 15.0 15.0 15.0 15.0 15.0 15.0 15.0 15.0 15.0 15.0 15.0 15.0 15.0 15.0 15.0 15.0 15.0 14.5 15.0 12.8 6.6 4.0 7.2 13.5 15.0 15.0 15.0
15.0 15.0 15.0 15.0 15.0 15.0 15.0 15.0 15.0 15.0 15.0 15.0 15.0 15.0 15.0 15.0 15.0 15.0 15.0 15.0 15.0 15.0 15.0 15.0 15.0 15.0 15.0 15.0 15.0 15.0 15.0 15.0 15.0 15.0 10.8 12.1 3.2 4.7 6.9 9.9 15.0 15.0 15.0
15.0 15.0 15.0 15.0 15.0 15.0 15.0 15.0 15.0 15.0 15.0 15.0 15.0 15.0 15.0 15.0 15.0 15.0 15.0 15.0 15.0 15.0 15.0 15.0 15.0 15.0 15.0 15.0 15.0 15.0 15.0 15.0 15.0 15.0 15.0 15.0 15.0 3.5 14.1 15.0 8.2 15.0 15.0
15.0 15.0 15.0 15.0 15.0 15.0 15.0 15.0 15.0 15.0 15.0 15.0 15.0 15.0 15.0 15.0 15.0 15.0 15.0 15.0 15.0 15.0 15.0 15.0 15.0 15.0 15.0 15.0 15.0 15.0 15.0 15.0 15.0 15.0 15.0 15.0 15.0 14.9 7.0 15.0 15.0 15.0 8.8
15.0 15.0 15.0 15.0 15.0 15.0 15.0 15.0 15.0 15.0 15.0 6.2 8.5 15.0 15.0 15.0 15.0 15.0 15.0 15.0 15.0 15.0 15.0 15.0 11.4 15.0 15.0 15.0 15.0 15.0 15.0 15.0 15.0 15.0 15.0 15.0 15.0 15.0 3.1 15.0 15.0 15.0 15.0
15.0 15.0 15.0 15.0 15.0 15.0 15.0 15.0 15.0 15.0 12.0 3.9 4.8 15.0 15.0 15.0 15.0 15.0 15.0 15.0 15.0 15.0 8.5 8.9 8.8 15.0 15.0 15.0 15.0 14.6 15.0 15.0 15.0 15.0 15.0 15.0 15.0 15.0 15.0 5.3 15.0 8.5 15.0
15.0 15.0 15.0 15.0 15.0 15.0 15.0 15.0 15.0 15.0 11.3 8.0 14.4 15.0 15.0 10.6 15.0 15.0 15.0 15.0 14.4 9.1 2.3 10.2 14.0 15.0 15.0 15.0 15.0 12.9 15.0 15.0 15.0 15.0 15.0 15.0 15.0 15.0 15.0 4.9 14.9 15.0 15.0
15.0 15.0 15.0 15.0 15.0 15.0 15.0 15.0 15.0 13.6 12.7 12.0 15.0 15.0 13.4 2.2 14.7 8.5 11.2 15.0 15.0 4.2 9.2 6.6 11.1 11.0 11.5 8.9 7.2 14.7 15.0 15.0 15.0 15.0 15.0 15.0 15.0 15.0 15.0 14.8 2.8 15.0 15.0
15.0 15.0 15.0 15.0 15.0 15.0 15.0 15.0 9.1 15.0 14.5 15.0 15.0 11.5 2.6 0.4 4.0 5.8 13.8 3.9 0.7 4.7 15.0 15.0 13.7 13.7 9.8 5.8 5.1 15.0 15.0 15.0 15.0 15.0 15.0 15.0 15.0 15.0 15.0 15.0 14.5 12.1 7.2
15.0 15.0 15.0 15.0 15.0 15.0 15.0 6.5 7.0 10.2 12.2 15.0 3.2 7.8 0.4 0.2 0.2 1.0 1.2 0.2 0.6 0.5 14.4 14.4 15.0 15.0 8.9 15.0 5.6 14.0 8.6 15.0 14.8 15.0 15.0 15.0 15.0 15.0 15.0 15.0 15.0 13.6 12.4
15.0 15.0 15.0 15.0 15.0 15.0 15.0 5.4 8.2 9.7 15.0 9.2 10.4 15.0 2.7 0.1 0.1 0.3 0.1 0.2 0.1 0.8 7.7 15.0 15.0 15.0 15.0 9.2 4.7 2.4 1.9 2.5 10.2 15.0 15.0 15.0 15.0 15.0 15.0 15.0 15.0 15.0 15.0
15.0 15.0 13.5 15.0 15.0 15.0 15.0 9.1 7.0 15.0 12.5 7.9 14.5 15.0 15.0 0.2 0.2 0.1 0.4 1.1 0.1 0.2 1.9 2.7 11.0 15.0 15.0 15.0 7.8 3.4 2.2 0.2 2.5 14.8 15.0 15.0 15.0 15.0 15.0 12.3 15.0 15.0 9.4
15.0 15.0 11.6 15.0 15.0 15.0 15.0 10.0 15.0 15.0 4.7 3.2 15.0 15.0 15.0 12.8 0.1 0.1 0.1 0.2 0.5 1.1 2.0 0.3 3.4 5.6 5.7 15.0 6.3 8.5 6.0 2.2 0.0 3.9 15.0 15.0 15.0 15.0 15.0 15.0 14.3 15.0 15.0
15.0 15.0 15.0 14.4 15.0 15.0 15.0 15.0 15.0 15.0 3.4 3.4 15.0 15.0 15.0 1.7 15.0 0.4 0.6 0.5 0.2 0.2 0.1 0.2 0.2 0.2 1.3 7.6 0.5 4.0 7.6 10.9 13.7 13.4 15.0 15.0 15.0 15.0 15.0 15.0 15.0 15.0 15.0
15.0 14.5 15.0 15.0 15.0 15.0 15.0 15.0 15.0 15.0 2.4 2.9 15.0 15.0 12.5 4.2 15.0 15.0 0.7 0.1 0.2 0.1 0.1 0.1 0.1 0.1 0.2 0.2 0.4 0.4 0.3 8.5 13.4 15.0 15.0 13.2 15.0 15.0 10.2 15.0 15.0 15.0 15.0
3.4 15.0 15.0 15.0 15.0 15.0 15.0 15.0 15.0 15.0 2.3 0.7 15.0 15.0 15.0 4.1 15.0 5.3 7.5 15.0 6.5 2.0 0.3 0.2 0.2 0.1 0.2 0.3 0.3 0.8 3.7 1.2 15.0 15.0 15.0 15.0 15.0 15.0 7.2 10.7 1.1 6.7 9.8